ASL310 LYNI-LDRI

Flight info

Callsign ASL310
Flight time 1h 0m
Altitude 34000
Route RAVAK DCT NANER DCT VEBAR DCT BOSNA DCT NAVSU DCT KULEN
Aircraft A320/M-SDE3FGHIRWY/LB1

Departure

Time 2026-05-09 11:48
Airport Niš Constantine the Great Airport (LYNI)

Arrival

Time 2026-05-09 12:48
Airport Rijeka Airport (LDRI)
Time Latitude Longitude Altitude Speed Heading
2026-05-09 11:32 43.33730 21.86465 638 ft 0 kts 24°
2026-05-09 11:46 43.33736 21.86468 641 ft 3 kts 26°
2026-05-09 11:46 43.33738 21.86510 636 ft 7 kts 124°
2026-05-09 11:46 43.33693 21.86560 636 ft 9 kts 138°
2026-05-09 11:46 43.33646 21.86626 636 ft 10 kts 132°
2026-05-09 11:47 43.33583 21.86684 638 ft 12 kts 157°
2026-05-09 11:47 43.33501 21.86702 640 ft 13 kts 190°
2026-05-09 11:47 43.33412 21.86653 635 ft 15 kts 203°
2026-05-09 11:47 43.33361 21.86546 635 ft 16 kts 285°
2026-05-09 11:48 43.33473 21.86191 645 ft 74 kts 294°
2026-05-09 11:48 43.33757 21.85297 641 ft 127 kts 293°
2026-05-09 11:48 43.34170 21.84018 761 ft 157 kts 296°
2026-05-09 11:48 43.34773 21.82823 1421 ft 151 kts 317°
2026-05-09 11:49 43.35664 21.82029 1931 ft 158 kts 334°
2026-05-09 11:49 43.36706 21.81389 2249 ft 170 kts 337°
2026-05-09 11:49 43.37830 21.80751 2647 ft 179 kts 337°
2026-05-09 11:49 43.39018 21.80072 3050 ft 190 kts 337°
2026-05-09 11:50 43.40265 21.79347 3485 ft 199 kts 337°
2026-05-09 11:50 43.41566 21.78594 3944 ft 208 kts 338°
2026-05-09 11:50 43.42951 21.77800 4368 ft 224 kts 338°
2026-05-09 11:50 43.44437 21.76949 4936 ft 237 kts 338°
2026-05-09 11:51 43.45993 21.76048 5568 ft 247 kts 338°
2026-05-09 11:51 43.47603 21.75105 6261 ft 255 kts 337°
2026-05-09 11:51 43.49255 21.74128 6921 ft 263 kts 337°
2026-05-09 11:51 43.50963 21.73129 7601 ft 269 kts 337°
2026-05-09 11:52 43.52701 21.72119 8354 ft 273 kts 337°
2026-05-09 11:52 43.54458 21.71095 9105 ft 276 kts 337°
2026-05-09 11:52 43.56234 21.70057 9883 ft 279 kts 336°
2026-05-09 11:52 43.58036 21.69005 10534 ft 283 kts 336°
2026-05-09 11:53 43.59838 21.67949 11175 ft 286 kts 337°
2026-05-09 11:53 43.61683 21.66869 11861 ft 290 kts 337°
2026-05-09 11:53 43.63552 21.65769 12607 ft 294 kts 337°
2026-05-09 11:53 43.65439 21.64652 13382 ft 297 kts 336°
2026-05-09 11:54 43.67218 21.63187 14099 ft 300 kts 321°
2026-05-09 11:54 43.68647 21.61078 14621 ft 307 kts 306°
2026-05-09 11:54 43.69630 21.58366 14747 ft 327 kts 288°
2026-05-09 11:54 43.70236 21.55236 14868 ft 346 kts 285°
2026-05-09 11:55 43.70858 21.51943 15054 ft 361 kts 286°
2026-05-09 11:56 43.74196 21.34653 17677 ft 380 kts 285°
2026-05-09 11:56 43.74879 21.31120 18292 ft 382 kts 285°
2026-05-09 11:56 43.75565 21.27553 18773 ft 386 kts 285°
2026-05-09 11:57 43.76257 21.23955 19275 ft 389 kts 285°
2026-05-09 11:57 43.76954 21.20322 19798 ft 392 kts 285°
2026-05-09 11:57 43.77654 21.16659 20301 ft 395 kts 285°
2026-05-09 11:57 43.78356 21.12972 20809 ft 397 kts 285°
2026-05-09 11:58 43.79064 21.09259 21290 ft 400 kts 285°
2026-05-09 11:58 43.79779 21.05521 21746 ft 403 kts 285°
2026-05-09 11:58 43.80495 21.01765 22186 ft 405 kts 285°
2026-05-09 11:58 43.81211 20.97983 22609 ft 408 kts 285°
2026-05-09 11:59 43.81931 20.94174 23088 ft 409 kts 285°
2026-05-09 11:59 43.82652 20.90358 23524 ft 411 kts 285°
2026-05-09 11:59 43.83376 20.86513 23898 ft 413 kts 285°
2026-05-09 11:59 43.84102 20.82657 24256 ft 414 kts 285°
2026-05-09 12:00 43.84817 20.78843 24620 ft 416 kts 285°
2026-05-09 12:00 43.85540 20.74960 24975 ft 417 kts 285°
2026-05-09 12:00 43.86264 20.71063 25320 ft 418 kts 285°
2026-05-09 12:00 43.86992 20.67156 25650 ft 419 kts 285°
2026-05-09 12:01 43.87722 20.63245 25997 ft 421 kts 284°
2026-05-09 12:01 43.88456 20.59310 26347 ft 422 kts 284°
2026-05-09 12:01 43.89187 20.55373 26682 ft 423 kts 284°
2026-05-09 12:01 43.89918 20.51413 27020 ft 424 kts 284°
2026-05-09 12:02 43.90650 20.47443 27363 ft 426 kts 284°
2026-05-09 12:02 43.91383 20.43463 27738 ft 425 kts 284°
2026-05-09 12:02 43.92112 20.39492 28223 ft 423 kts 284°
2026-05-09 12:02 43.92834 20.35546 28714 ft 421 kts 284°
2026-05-09 12:03 43.93552 20.31615 29212 ft 419 kts 284°
2026-05-09 12:03 43.94267 20.27707 29679 ft 418 kts 283°
2026-05-09 12:03 43.94978 20.23804 30156 ft 416 kts 283°
2026-05-09 12:03 43.95687 20.19918 30566 ft 415 kts 283°
2026-05-09 12:04 43.96396 20.16043 30983 ft 413 kts 283°
2026-05-09 12:04 43.97100 20.12180 31381 ft 412 kts 283°
2026-05-09 12:04 43.97795 20.08326 31772 ft 411 kts 283°
2026-05-09 12:04 43.98484 20.04486 32172 ft 410 kts 283°
2026-05-09 12:05 43.99171 20.00654 32578 ft 408 kts 283°
2026-05-09 12:05 43.99853 19.96831 32991 ft 407 kts 283°
2026-05-09 12:05 44.00533 19.93012 33409 ft 406 kts 282°
2026-05-09 12:05 44.01207 19.89221 33840 ft 404 kts 282°
2026-05-09 12:06 44.01874 19.85485 34063 ft 404 kts 282°
2026-05-09 12:06 44.03247 19.77778 34099 ft 416 kts 282°
2026-05-09 12:07 44.04630 19.69950 34100 ft 418 kts 282°
2026-05-09 12:07 44.06019 19.62083 34100 ft 419 kts 282°
2026-05-09 12:08 44.07408 19.54206 34100 ft 419 kts 282°
2026-05-09 12:08 44.08783 19.46334 34100 ft 419 kts 282°
2026-05-09 12:09 44.10153 19.38446 34105 ft 420 kts 282°
2026-05-09 12:09 44.11519 19.30550 34110 ft 420 kts 282°
2026-05-09 12:10 44.14236 19.14744 34125 ft 419 kts 282°
2026-05-09 12:11 44.15584 19.06858 34124 ft 418 kts 282°
2026-05-09 12:11 44.16917 18.98977 34117 ft 418 kts 282°
2026-05-09 12:12 44.18252 18.91108 34116 ft 417 kts 282°
2026-05-09 12:12 44.19573 18.83294 34128 ft 416 kts 282°
2026-05-09 12:13 44.20890 18.75449 34122 ft 415 kts 282°
2026-05-09 12:13 44.22196 18.67611 34123 ft 414 kts 282°
2026-05-09 12:14 44.23493 18.59790 34121 ft 414 kts 282°
2026-05-09 12:14 44.24785 18.51973 34120 ft 413 kts 282°
2026-05-09 12:15 44.26073 18.44158 34116 ft 413 kts 282°
2026-05-09 12:15 44.27352 18.36346 34116 ft 413 kts 282°
2026-05-09 12:16 44.28631 18.28540 34114 ft 412 kts 282°
2026-05-09 12:16 44.29898 18.20733 34112 ft 412 kts 282°
2026-05-09 12:17 44.31157 18.12948 34123 ft 410 kts 282°
2026-05-09 12:17 44.32409 18.05209 34126 ft 408 kts 283°
2026-05-09 12:18 44.33646 17.97494 34118 ft 406 kts 283°
2026-05-09 12:18 44.34873 17.89804 34117 ft 405 kts 282°
2026-05-09 12:19 44.36082 17.82187 34124 ft 403 kts 283°
2026-05-09 12:19 44.37296 17.74567 34125 ft 400 kts 284°
2026-05-09 12:20 44.38802 17.67088 34123 ft 398 kts 287°
2026-05-09 12:20 44.40446 17.59701 34116 ft 398 kts 287°
2026-05-09 12:21 44.42252 17.52346 34091 ft 400 kts 289°
2026-05-09 12:21 44.44229 17.45066 34103 ft 400 kts 290°
2026-05-09 12:22 44.46196 17.37800 34108 ft 398 kts 290°
2026-05-09 12:22 44.48110 17.30532 34108 ft 397 kts 289°
2026-05-09 12:23 44.49998 17.23272 34105 ft 396 kts 289°
2026-05-09 12:23 44.51870 17.16070 34105 ft 396 kts 289°
2026-05-09 12:24 44.53746 17.08857 34105 ft 393 kts 289°
2026-05-09 12:24 44.55606 17.01687 34106 ft 390 kts 289°
2026-05-09 12:25 44.57425 16.94638 34109 ft 388 kts 289°
2026-05-09 12:25 44.58960 16.88668 34102 ft 387 kts 289°
2026-05-09 12:26 44.60771 16.81609 34094 ft 386 kts 289°
2026-05-09 12:26 44.61675 16.78087 33951 ft 380 kts 289°
2026-05-09 12:26 44.62565 16.74614 33288 ft 378 kts 289°
2026-05-09 12:26 44.63457 16.71121 32437 ft 382 kts 289°
2026-05-09 12:27 44.64360 16.67580 31477 ft 388 kts 289°
2026-05-09 12:27 44.65270 16.64003 30514 ft 395 kts 289°
2026-05-09 12:27 44.66207 16.60325 29342 ft 404 kts 288°
2026-05-09 12:27 44.67155 16.56594 28521 ft 405 kts 288°
2026-05-09 12:28 44.68101 16.52875 27826 ft 403 kts 288°
2026-05-09 12:28 44.69037 16.49186 27146 ft 400 kts 288°
2026-05-09 12:28 44.69963 16.45519 26516 ft 396 kts 288°
2026-05-09 12:28 44.70878 16.41885 25929 ft 392 kts 288°
2026-05-09 12:29 44.71784 16.38286 25300 ft 390 kts 288°
2026-05-09 12:29 44.72684 16.34698 24670 ft 389 kts 289°
2026-05-09 12:29 44.73580 16.31119 24051 ft 388 kts 289°
2026-05-09 12:29 44.74476 16.27549 23434 ft 387 kts 289°
2026-05-09 12:30 44.75373 16.23985 22769 ft 385 kts 289°
2026-05-09 12:30 44.76262 16.20438 22164 ft 383 kts 289°
2026-05-09 12:30 44.78020 16.13396 21033 ft 380 kts 289°
2026-05-09 12:31 44.78893 16.09900 20520 ft 377 kts 289°
2026-05-09 12:31 44.80609 16.02984 19531 ft 374 kts 288°
2026-05-09 12:31 44.81462 15.99526 19033 ft 372 kts 288°
2026-05-09 12:32 44.82312 15.96085 18531 ft 371 kts 288°
2026-05-09 12:32 44.83151 15.92694 17977 ft 370 kts 289°
2026-05-09 12:32 44.83995 15.89278 17428 ft 368 kts 289°
2026-05-09 12:32 44.84845 15.85834 16860 ft 366 kts 289°
2026-05-09 12:33 44.85679 15.82456 16307 ft 364 kts 289°
2026-05-09 12:33 44.86496 15.79140 15763 ft 362 kts 289°
2026-05-09 12:33 44.87316 15.75792 15215 ft 360 kts 288°
2026-05-09 12:33 44.88127 15.72461 14881 ft 360 kts 288°
2026-05-09 12:34 44.88927 15.69158 14593 ft 351 kts 288°
2026-05-09 12:34 44.89705 15.65937 14306 ft 343 kts 288°
2026-05-09 12:34 44.90471 15.62785 14015 ft 335 kts 289°
2026-05-09 12:34 44.91222 15.59708 13716 ft 329 kts 289°
2026-05-09 12:35 44.91959 15.56684 13396 ft 323 kts 288°
2026-05-09 12:35 44.92677 15.53732 13079 ft 317 kts 289°
2026-05-09 12:35 44.93387 15.50814 12769 ft 312 kts 288°
2026-05-09 12:35 44.94086 15.47933 12461 ft 308 kts 288°
2026-05-09 12:36 44.94772 15.45094 12157 ft 304 kts 288°
2026-05-09 12:36 44.95448 15.42293 11845 ft 299 kts 288°
2026-05-09 12:36 44.96115 15.39526 11542 ft 296 kts 288°
2026-05-09 12:36 44.96775 15.36780 11219 ft 294 kts 289°
2026-05-09 12:37 44.97432 15.34049 10853 ft 294 kts 289°
2026-05-09 12:37 44.98088 15.31315 10487 ft 294 kts 289°
2026-05-09 12:37 44.98742 15.28588 10127 ft 293 kts 289°
2026-05-09 12:37 44.99394 15.25865 9754 ft 293 kts 289°
2026-05-09 12:38 45.00047 15.23136 9348 ft 293 kts 289°
2026-05-09 12:38 45.00699 15.20413 8958 ft 292 kts 289°
2026-05-09 12:38 45.01347 15.17712 8568 ft 286 kts 289°
2026-05-09 12:38 45.01968 15.15105 8189 ft 275 kts 289°
2026-05-09 12:39 45.02561 15.12606 7988 ft 258 kts 289°
2026-05-09 12:39 45.03109 15.10287 7994 ft 242 kts 289°
2026-05-09 12:39 45.03634 15.08070 8000 ft 233 kts 289°
2026-05-09 12:39 45.04130 15.05942 7939 ft 225 kts 285°
2026-05-09 12:40 45.04352 15.03763 7644 ft 224 kts 270°
2026-05-09 12:40 45.04190 15.01594 7269 ft 229 kts 256°
2026-05-09 12:40 45.03744 14.99403 6857 ft 235 kts 254°
2026-05-09 12:40 45.03276 14.97125 6435 ft 241 kts 254°
2026-05-09 12:41 45.02806 14.94827 6081 ft 244 kts 253°
2026-05-09 12:41 45.02339 14.92549 5757 ft 245 kts 253°
2026-05-09 12:41 45.01864 14.90242 5431 ft 245 kts 253°
2026-05-09 12:41 45.01391 14.87930 5114 ft 245 kts 254°
2026-05-09 12:42 45.00928 14.85659 4998 ft 235 kts 254°
2026-05-09 12:42 45.00492 14.83507 4992 ft 220 kts 256°
2026-05-09 12:42 45.00370 14.81449 5032 ft 204 kts 276°
2026-05-09 12:42 45.00740 14.79564 4935 ft 196 kts 296°
2026-05-09 12:43 45.01516 14.78017 4680 ft 192 kts 316°
2026-05-09 12:43 45.02552 14.76881 4460 ft 186 kts 326°
2026-05-09 12:43 45.03589 14.75820 4239 ft 182 kts 324°
2026-05-09 12:43 45.04606 14.74768 4021 ft 179 kts 325°
2026-05-09 12:44 45.05605 14.73735 3810 ft 177 kts 324°
2026-05-09 12:44 45.06591 14.72715 3597 ft 174 kts 324°
2026-05-09 12:44 45.07560 14.71710 3391 ft 172 kts 324°
2026-05-09 12:44 45.08527 14.70708 3185 ft 173 kts 322°
2026-05-09 12:45 45.09500 14.69703 2972 ft 173 kts 323°
2026-05-09 12:45 45.10469 14.68702 2742 ft 172 kts 322°
2026-05-09 12:45 45.11430 14.67709 2512 ft 170 kts 321°
2026-05-09 12:45 45.12382 14.66723 2288 ft 169 kts 321°
2026-05-09 12:46 45.13329 14.65745 2063 ft 166 kts 321°
2026-05-09 12:46 45.14240 14.64803 1842 ft 158 kts 322°
2026-05-09 12:46 45.15097 14.63915 1655 ft 150 kts 321°
2026-05-09 12:46 45.15931 14.63048 1459 ft 148 kts 322°
2026-05-09 12:47 45.16755 14.62193 1267 ft 146 kts 322°
2026-05-09 12:47 45.17570 14.61341 1101 ft 145 kts 322°
2026-05-09 12:47 45.18358 14.60513 936 ft 141 kts 322°
2026-05-09 12:47 45.19150 14.59693 702 ft 141 kts 322°
2026-05-09 12:48 45.19948 14.58866 556 ft 141 kts 323°
2026-05-09 12:48 45.20734 14.58054 311 ft 139 kts 324°
2026-05-09 12:48 45.21451 14.57306 264 ft 107 kts 323°
2026-05-09 12:48 45.21905 14.56834 263 ft 47 kts 324°
2026-05-09 12:49 45.22015 14.56722 263 ft 5 kts 325°
2026-05-09 12:49 45.22045 14.56739 263 ft 6 kts 68°
2026-05-09 12:49 45.22039 14.56806 263 ft 8 kts 102°
2026-05-09 12:49 45.22025 14.56880 265 ft 8 kts 107°
2026-05-09 12:50 45.22013 14.56939 268 ft 4 kts 105°
2026-05-09 12:50 45.21991 14.56989 268 ft 8 kts 135°
2026-05-09 12:50 45.21964 14.57051 268 ft 7 kts 97°
2026-05-09 12:50 45.21957 14.57101 269 ft 0 kts 102°